Wind_Speed
107 108 110 111 113 114 114 115 115 116 116 116 115 115 115 114 114 113 112 112 110 109 108 108 108 108 109 109 109 110 110 110 110 109 108 107 106 105 104 103 102 101 99 99 101 101 101 102 104 105 107 108 109 110 111 112 113 114 115 116 118 119 121
111 112 113 114 114 114 114 114 114 113 113 113 113 113 113 112 112 112 111 110 108 107 107 106 106 107 108 108 108 109 110 109 109 108 107 106 104 103 103 102 102 100 98 98 99 100 100 101 102 104 106 107 107 109 110 111 111 112 113 115 116 117 119
114 114 114 114 114 114 113 113 112 112 112 112 112 112 112 111 111 111 110 109 107 106 105 105 105 106 107 108 108 108 108 108 108 107 105 104 103 101 101 100 100 99 97 96 96 98 100 101 102 103 105 106 107 107 109 110 110 111 112 113 114 115 116
115 115 115 114 114 113 113 112 112 112 112 111 111 111 111 111 111 110 109 107 106 105 104 104 105 105 106 106 106 106 106 106 106 105 103 102 101 100 98 98 97 97 96 95 94 96 98 100 101 102 103 105 106 106 107 109 109 109 110 111 111 112 112
115 115 114 113 113 113 112 112 112 112 112 111 111 110 110 110 110 109 108 106 105 104 104 104 104 104 105 104 104 104 104 103 103 102 101 100 99 98 97 96 95 95 94 93 92 93 96 98 100 101 102 103 105 105 106 107 108 108 108 108 108 108 109
114 114 113 113 113 113 113 113 112 112 111 111 110 109 109 109 108 107 106 105 104 104 103 103 103 103 103 102 102 101 101 101 100 99 99 98 97 97 96 94 94 93 93 92 91 91 93 95 98 100 100 102 103 103 103 104 106 106 105 104 104 104 104
113 113 112 112 112 112 112 112 111 111 110 109 109 109 108 108 107 105 104 104 103 103 102 102 102 102 101 101 100 100 99 98 98 97 96 96 95 95 94 93 92 91 91 90 90 90 91 92 95 97 98 100 101 100 100 101 102 102 101 101 100 99 99
113 112 112 111 111 111 111 110 109 109 108 108 108 107 107 106 105 104 103 102 102 101 101 101 101 100 100 100 99 98 97 96 95 94 93 93 93 92 91 91 90 89 88 88 88 89 90 91 91 93 96 98 98 97 96 97 98 97 97 97 96 96 97
112 111 111 110 110 109 108 108 107 107 107 107 107 106 105 104 103 102 101 100 100 100 100 100 100 99 99 99 98 97 96 94 93 92 91 90 90 89 88 87 87 86 87 87 86 87 88 89 89 91 94 94 94 94 93 94 95 94 93 93 92 93 95
111 110 110 109 108 107 107 106 106 106 106 105 105 103 102 101 100 100 99 99 99 99 99 99 98 98 98 98 97 95 94 93 91 89 88 88 87 86 85 84 84 84 85 85 84 85 86 86 87 89 91 91 91 92 92 92 92 91 90 89 89 91 93
109 109 108 107 106 106 106 106 105 105 104 104 102 101 100 99 99 98 97 97 97 97 97 97 96 96 96 95 94 93 92 90 89 87 86 85 84 83 82 82 82 82 82 82 82 83 83 84 85 87 88 89 90 91 91 91 90 88 87 86 86 89 92
108 107 106 105 105 105 105 104 104 103 103 101 100 99 98 97 97 96 96 95 95 95 95 94 94 94 93 93 92 91 89 88 87 86 85 83 81 80 79 80 80 79 80 80 81 80 81 82 84 85 86 88 89 89 89 89 88 86 84 84 84 87 90
106 105 104 104 104 104 103 103 102 102 101 99 98 97 96 95 95 94 93 93 92 92 92 92 92 91 90 90 89 88 87 86 86 84 82 80 79 78 78 78 78 79 80 80 79 78 78 81 83 84 86 87 87 86 86 87 86 85 83 82 83 85 87
104 104 103 103 103 102 101 101 100 100 98 97 96 95 94 92 92 91 91 90 89 89 89 89 89 88 87 86 86 86 86 85 84 82 80 78 77 77 77 78 79 81 82 80 77 75 76 81 84 84 84 85 84 84 85 85 84 83 81 80 80 82 84
103 102 102 101 101 100 99 98 98 97 96 95 94 93 91 89 88 87 87 87 86 86 86 87 86 84 84 83 83 84 85 84 82 80 78 77 77 77 77 79 81 83 82 78 74 73 74 78 82 83 82 82 83 82 83 83 81 80 79 77 77 79 81
101 100 100 99 98 97 96 96 95 95 94 93 92 90 88 85 84 83 83 83 83 83 83 84 83 83 83 83 83 84 84 83 81 79 78 77 76 77 78 80 83 83 79 76 74 74 75 76 78 79 79 80 81 82 82 80 77 77 76 74 75 77 78
98 98 97 96 95 94 94 93 93 93 92 90 88 86 84 82 81 80 80 80 80 80 80 80 80 81 82 83 84 84 84 83 81 79 77 76 75 76 78 81 84 81 77 75 75 75 76 75 75 75 75 76 78 80 80 76 74 75 73 71 74 76 76
95 94 93 93 92 91 91 91 91 90 88 86 84 82 80 79 78 78 78 79 79 79 79 79 79 80 81 82 83 83 84 83 82 80 77 75 74 75 79 83 84 80 78 79 79 77 75 73 73 72 73 74 76 76 75 72 72 75 72 69 71 75 75
92 91 90 90 89 89 88 88 88 87 85 83 81 80 79 78 78 78 78 79 79 79 78 79 80 80 80 80 80 81 82 83 82 80 77 74 73 73 77 82 82 79 79 82 82 80 75 72 71 71 71 72 74 74 72 69 69 72 73 70 69 71 73
88 88 87 87 87 86 85 84 84 84 83 81 80 79 78 77 77 78 78 78 78 78 78 79 79 79 80 79 79 80 81 82 81 79 76 74 73 74 76 78 77 77 80 82 83 81 76 72 71 70 69 70 71 71 70 69 67 68 70 70 69 69 69
86 85 84 84 83 83 82 82 82 82 82 81 80 79 78 77 77 77 77 77 77 77 77 78 78 78 79 79 79 79 80 81 81 80 77 75 74 74 75 74 73 75 80 82 82 79 76 74 72 69 68 68 69 68 68 68 67 66 66 67 68 67 67
83 82 81 81 81 81 81 81 81 81 81 81 80 79 78 77 77 76 76 76 76 76 77 77 78 78 78 78 78 79 81 82 82 81 79 76 74 73 72 71 70 73 79 82 80 77 75 75 72 69 67 67 67 66 66 67 67 64 63 63 65 65 66
80 79 79 79 79 80 80 81 81 81 81 81 80 79 78 77 77 76 75 74 74 75 76 76 77 77 77 77 78 80 81 82 82 81 79 77 74 71 70 69 69 71 75 78 77 76 75 74 72 69 67 66 65 63 64 66 66 63 60 61 63 64 65
78 77 77 78 79 79 79 80 81 81 81 81 80 79 78 77 76 76 75 74 73 74 75 75 76 76 76 77 78 80 81 80 80 80 78 76 74 72 70 68 69 71 72 72 73 74 74 73 72 69 67 65 63 60 60 63 65 63 61 60 61 63 64
77 77 77 77 78 78 79 80 80 81 81 80 79 78 78 77 76 76 75 74 73 72 72 73 74 76 76 77 78 79 79 79 78 77 76 75 73 71 69 69 70 70 69 69 69 71 72 72 71 69 67 65 62 59 58 60 63 63 62 61 60 61 63
76 76 77 77 77 78 79 79 79 80 79 79 78 78 78 77 76 75 75 74 73 72 71 71 72 74 75 77 78 78 77 76 76 75 75 73 71 69 67 68 69 69 67 67 67 67 68 69 69 68 67 66 63 59 57 58 60 62 62 61 60 60 61
76 76 76 76 77 77 78 78 79 79 78 78 78 78 78 77 76 75 73 73 73 73 71 70 71 72 74 75 75 75 74 74 73 73 72 72 71 69 67 67 68 68 66 66 65 64 65 66 66 67 67 66 65 61 57 56 58 60 61 61 60 60 61
76 76 76 76 76 76 76 77 78 77 77 76 77 77 78 77 76 75 74 73 73 72 71 70 71 72 73 73 73 73 72 71 71 70 70 70 69 68 66 65 66 66 65 64 63 63 63 63 64 65 65 65 65 63 59 55 56 59 60 59 58 59 60
75 76 75 75 75 75 75 75 76 76 75 75 75 76 76 76 76 75 74 74 73 71 70 70 71 71 72 72 71 71 70 70 69 68 68 68 67 66 65 64 64 64 63 63 62 62 62 62 62 63 64 63 64 63 60 56 55 57 58 58 57 58 59
75 75 74 74 74 74 74 74 74 74 74 74 74 74 75 75 75 75 75 75 74 71 69 69 69 70 71 71 70 69 69 68 67 66 66 65 64 64 63 63 63 62 61 61 62 62 62 62 61 62 62 62 62 62 61 58 55 54 56 56 56 57 58
74 74 73 72 72 72 72 73 73 73 73 73 73 73 73 73 74 74 74 74 74 73 71 70 69 69 70 70 70 69 68 67 66 64 63 63 62 62 62 62 63 62 61 60 61 61 61 61 61 62 62 61 60 60 60 58 55 53 53 54 54 55 56
74 73 72 71 70 70 70 70 71 72 73 74 74 73 73 72 72 72 72 71 70 69 70 71 70 70 69 69 68 68 67 66 65 64 62 61 61 61 61 61 62 62 61 60 60 60 60 60 61 61 61 60 59 57 57 57 56 53 51 50 51 53 54
73 72 71 71 70 69 68 68 69 70 71 72 73 73 73 72 72 73 72 70 68 66 66 67 67 68 68 68 67 66 66 65 64 63 62 61 61 60 60 60 60 61 60 60 59 58 58 59 59 60 59 59 57 55 54 54 55 53 50 49 49 50 51
72 71 70 70 70 69 68 68 68 69 69 69 70 70 70 70 71 72 72 71 69 67 66 65 64 64 65 65 65 66 65 65 64 63 62 61 59 59 59 59 59 60 60 59 58 57 57 57 57 58 58 57 56 55 54 53 52 52 51 49 48 48 49
74 73 71 70 70 69 69 69 68 68 68 68 68 68 68 68 68 69 70 69 68 66 65 64 64 63 63 63 63 64 64 64 64 63 62 60 59 57 56 56 57 58 59 59 58 57 57 57 57 57 57 57 56 55 54 53 51 50 50 50 49 48 48
73 73 73 72 70 70 69 70 69 69 68 68 67 66 66 66 66 67 67 67 66 65 64 63 64 64 63 63 62 62 62 62 62 62 61 61 59 57 55 54 54 55 56 57 57 57 57 56 57 57 57 57 57 56 55 54 53 51 49 48 48 48 48
Wind_Direction
291 290 290 289 289 288 288 288 288 288 288 287 287 287 286 286 286 285 285 285 285 285 284 284 284 284 283 283 282 282 281 280 280 279 279 278 277 277 276 275 274 273 272 272 271 269 268 267 266 266 265 264 263 263 262 261 261 260 259 259 259 258 258
292 292 291 291 290 290 290 289 289 289 289 288 288 287 287 287 286 286 285 285 285 285 285 284 284 284 283 282 282 281 281 280 280 279 279 278 278 277 276 276 275 274 273 272 271 270 269 268 267 266 266 265 264 263 262 262 261 260 260 259 259 258 258
293 293 293 292 292 292 291 291 290 290 289 289 289 288 288 288 287 286 286 286 286 286 285 285 284 284 283 282 282 281 281 281 280 280 279 279 278 277 276 276 275 274 273 272 271 270 269 268 268 267 266 265 264 264 263 262 262 261 260 259 259 258 258
294 294 294 293 293 292 292 292 291 291 290 290 290 289 289 288 288 287 287 287 287 287 286 285 285 284 283 283 282 282 282 281 281 280 280 279 278 277 277 276 275 274 273 272 271 270 270 269 268 267 266 266 265 264 264 263 262 261 260 260 259 259 259
295 294 294 294 294 293 293 292 292 291 291 291 290 290 289 289 288 288 288 288 288 288 287 286 285 284 284 283 283 283 282 282 281 281 281 280 279 278 277 276 275 274 273 272 271 270 269 269 268 268 267 266 265 265 264 264 263 262 261 261 260 260 259
295 295 295 294 294 293 293 292 292 292 291 291 291 290 289 289 289 289 289 289 289 288 287 287 286 285 285 284 284 283 283 282 282 281 281 281 280 279 278 277 276 275 274 273 271 270 269 268 268 267 267 267 266 265 265 265 264 264 263 262 262 261 261
295 295 295 294 294 293 293 292 292 292 291 291 291 290 290 290 290 290 290 290 289 289 288 288 287 286 286 285 284 284 283 283 282 282 281 281 280 279 279 278 277 276 275 274 273 272 270 268 268 267 267 267 266 266 265 265 265 265 265 264 264 263 262
295 295 294 294 293 293 292 292 292 292 292 291 291 291 291 291 291 291 290 290 290 290 289 288 288 287 286 286 285 284 283 283 282 282 281 281 280 279 279 278 277 277 276 275 274 273 271 270 269 269 268 267 267 267 266 266 265 265 265 265 265 264 264
295 295 294 294 293 293 293 293 292 292 292 291 291 291 291 291 291 291 291 291 290 290 289 289 288 287 286 286 285 284 284 283 282 282 281 280 280 279 279 278 278 277 276 275 274 273 272 272 271 270 269 269 269 268 267 267 266 266 266 266 265 265 264
295 295 294 294 294 293 293 293 293 293 292 292 291 291 292 292 292 291 291 291 290 290 289 288 287 287 286 285 285 284 284 283 283 282 281 280 280 279 279 279 278 277 276 275 275 273 273 272 271 271 270 270 270 269 269 268 267 267 267 266 266 266 264
295 294 294 294 294 294 294 293 293 293 292 292 292 292 292 292 292 291 291 290 290 289 288 287 287 286 285 285 285 285 284 284 283 283 282 281 280 280 280 280 278 277 276 275 274 273 273 273 272 271 271 271 270 270 270 269 269 268 268 268 267 266 265
295 295 295 295 294 294 294 293 293 293 292 292 292 293 292 292 291 291 290 290 289 288 287 287 286 286 285 285 285 285 285 284 284 283 282 282 282 282 281 280 279 278 276 275 274 273 274 274 273 273 272 271 270 271 271 271 270 270 269 268 267 266 265
295 295 295 295 294 294 294 294 293 293 293 293 293 292 292 291 291 290 290 289 288 288 287 287 286 286 286 286 286 285 285 284 284 283 283 284 284 283 282 281 280 278 276 275 275 275 276 276 274 273 273 272 272 272 272 272 271 270 269 268 267 266 265
296 296 295 295 294 294 294 294 293 293 293 293 292 292 291 291 291 290 290 289 288 288 287 286 286 286 286 286 286 286 285 284 284 284 285 285 285 284 283 282 280 278 276 276 276 277 277 276 275 274 274 274 273 273 273 272 271 270 269 268 267 266 265
296 295 295 295 294 294 294 294 293 293 292 292 291 291 291 291 290 290 289 289 288 288 287 287 287 287 287 286 286 285 284 284 285 286 286 286 285 284 283 281 279 278 277 277 277 276 275 275 275 275 275 275 274 273 272 271 271 271 269 268 267 266 265
296 295 295 294 294 294 294 293 293 292 292 292 291 291 291 291 291 290 289 288 288 287 287 287 288 289 288 287 286 285 285 286 286 286 286 286 286 284 283 282 280 279 279 280 279 277 275 274 274 275 275 275 275 274 272 271 271 271 270 269 268 266 265
295 295 295 294 294 294 293 293 292 292 292 292 291 291 292 291 291 290 289 288 287 287 288 288 288 288 288 287 287 287 287 287 287 286 286 286 286 285 285 283 282 282 283 282 280 278 276 275 275 275 275 275 274 273 273 273 272 271 269 269 268 266 265
295 295 294 294 294 293 293 293 292 292 291 292 292 292 292 291 291 290 289 289 288 288 288 288 288 287 287 287 287 288 288 288 287 287 287 287 287 287 286 284 284 285 285 284 281 279 278 277 277 277 276 275 274 273 273 273 273 272 270 268 267 267 266
295 294 294 294 294 293 293 292 292 292 292 292 292 292 292 291 291 290 290 289 289 289 289 288 288 287 287 288 288 287 287 287 287 287 287 287 286 285 284 284 285 287 286 284 283 281 280 280 279 278 276 275 274 273 273 272 271 271 271 269 266 266 266
295 294 294 294 294 293 293 292 292 292 292 293 293 292 292 292 291 291 290 290 290 290 290 289 289 289 289 288 288 287 287 287 287 287 287 286 285 284 282 283 285 286 285 283 282 282 282 281 279 278 277 276 275 274 274 272 270 270 270 269 267 265 265
295 295 295 294 294 293 293 293 293 293 293 293 293 293 293 292 292 291 291 291 291 291 290 290 290 289 289 289 289 289 288 288 287 287 286 285 284 284 283 285 286 285 283 282 281 282 283 281 279 278 277 276 275 275 274 273 271 269 268 268 268 267 265
296 296 295 295 294 294 294 294 294 294 294 294 294 294 294 293 293 292 292 291 292 291 291 291 290 290 290 290 290 289 288 288 287 287 287 286 285 285 285 285 285 283 282 281 282 282 282 281 280 279 278 276 276 275 274 272 271 269 268 267 267 266 265
296 296 295 295 295 295 295 295 295 295 295 295 295 295 294 294 293 293 292 292 292 292 291 291 291 290 291 290 290 289 288 287 288 288 288 288 287 286 285 284 282 280 279 280 282 282 281 280 280 279 278 277 276 275 274 273 272 270 268 267 266 266 265
297 296 296 296 296 296 296 296 296 295 295 295 295 296 295 295 294 294 293 293 293 292 291 291 291 291 290 290 289 288 287 287 288 288 288 289 288 287 285 283 281 279 279 280 281 281 281 281 280 279 278 276 275 274 273 273 273 272 269 267 266 266 265
297 297 297 296 297 297 297 296 296 296 296 296 297 297 296 295 294 294 294 293 292 291 291 291 291 291 290 289 288 288 288 288 288 288 288 288 287 287 286 285 282 281 280 280 280 280 281 281 281 280 279 277 275 273 271 271 272 272 271 269 267 266 266
297 297 297 297 298 297 297 297 296 296 297 297 297 297 295 294 294 294 293 293 292 292 291 291 291 290 290 289 288 288 288 289 289 289 288 288 287 287 286 285 283 282 282 281 280 280 280 281 281 280 280 279 277 274 272 271 271 271 271 269 268 267 266
298 298 298 298 298 298 298 297 297 297 298 298 297 296 295 294 294 294 293 293 293 292 292 292 291 290 289 288 288 288 288 289 288 288 288 288 288 287 286 285 284 283 282 281 280 280 279 279 279 280 280 279 279 277 274 273 272 271 270 269 269 267 266
299 299 299 299 299 298 298 298 298 298 298 297 296 295 295 295 295 295 294 294 293 293 293 293 291 290 289 289 289 289 289 288 288 288 288 287 287 287 286 285 284 283 282 282 281 280 279 278 278 278 278 278 279 278 276 274 272 271 271 270 269 268 266
300 300 300 300 300 299 299 298 298 298 297 296 296 296 296 296 296 295 295 295 294 293 293 293 292 291 290 289 289 289 289 289 288 288 288 287 287 287 286 285 284 283 283 282 281 280 279 278 278 278 277 277 277 278 277 275 272 271 271 270 269 268 267
301 301 301 301 300 299 299 298 298 297 297 297 296 296 296 296 296 296 296 296 295 294 294 293 292 291 291 291 290 290 289 289 289 289 288 287 287 286 286 285 284 283 282 282 281 280 279 279 278 278 277 277 277 277 276 275 273 271 271 270 269 268 267
302 301 301 301 300 300 299 299 299 298 298 297 296 296 296 296 296 296 296 295 296 296 296 295 294 293 292 292 292 291 290 290 289 288 288 287 287 286 285 285 284 283 283 282 281 280 280 280 279 278 277 276 276 276 276 276 274 271 270 269 269 268 268
302 302 301 300 300 299 299 299 299 299 298 298 297 297 296 296 296 295 294 294 294 295 295 295 294 294 293 292 292 291 291 290 290 289 288 287 286 286 285 284 284 283 283 281 280 280 279 279 278 277 277 276 275 275 275 275 274 272 270 268 268 268 267
302 302 302 301 300 300 300 300 299 298 298 297 297 297 298 298 297 297 296 296 296 295 294 293 293 293 293 292 292 291 290 290 289 289 288 287 287 286 285 285 284 283 282 281 280 279 278 277 277 277 276 276 275 275 274 273 273 273 271 268 266 266 265
302 302 302 302 302 302 301 300 299 298 297 297 297 297 297 298 297 297 297 298 298 297 296 294 293 292 291 291 291 291 290 290 289 288 288 287 286 286 285 284 284 283 282 281 280 279 278 277 276 276 276 276 276 275 273 272 271 272 272 270 267 264 263
304 304 304 303 303 303 302 301 300 299 299 298 298 298 298 298 297 297 297 297 297 297 296 295 294 292 291 291 290 290 290 290 290 290 289 288 287 285 284 283 282 282 281 281 280 279 278 278 277 277 277 277 277 276 275 274 272 271 270 270 268 266 264
305 305 305 305 305 304 303 303 302 301 301 300 300 300 300 299 298 298 297 297 297 296 296 295 294 294 293 292 291 290 290 290 290 290 289 289 288 286 284 282 280 279 279 279 278 278 278 278 277 277 277 277 277 277 276 276 274 273 271 269 268 267 265
Height
10178 10173 10168 10161 10155 10149 10143 10137 10130 10124 10118 10111 10105 10099 10094 10089 10084 10080 10076 10071 10069 10067 10063 10058 10053 10048 10042 10036 10031 10025 10020 10016 10012 10009 10007 10005 10005 10004 10002 10001 10000 10002 10006 10003 9998 9997 9996 9994 9992 9990 9989 9989 9989 9989 9988 9989 9990 9991 9992 9993 9994 9995 9997
10158 10153 10147 10141 10135 10129 10123 10117 10111 10105 10099 10093 10086 10080 10075 10070 10065 10061 10057 10054 10052 10049 10045 10041 10036 10030 10023 10017 10013 10008 10002 9998 9994 9991 9990 9988 9988 9987 9985 9983 9981 9982 9986 9987 9982 9977 9976 9975 9973 9972 9969 9967 9969 9969 9966 9968 9970 9971 9972 9974 9974 9975 9977
10139 10133 10127 10121 10115 10109 10103 10098 10091 10085 10080 10074 10068 10062 10057 10051 10046 10041 10038 10035 10033 10030 10027 10023 10017 10010 10004 9998 9994 9990 9984 9980 9976 9972 9972 9971 9970 9969 9968 9965 9964 9964 9966 9968 9967 9961 9957 9955 9955 9954 9949 9945 9948 9949 9946 9947 9950 9952 9951 9953 9954 9956 9959
10121 10114 10108 10103 10096 10090 10084 10078 10072 10065 10060 10055 10050 10044 10038 10032 10026 10022 10019 10017 10015 10011 10007 10003 9997 9991 9985 9980 9976 9972 9967 9961 9957 9954 9953 9952 9951 9950 9950 9948 9947 9947 9947 9949 9950 9945 9939 9936 9935 9934 9931 9926 9926 9929 9928 9927 9930 9932 9932 9933 9936 9940 9942
10103 10096 10090 10084 10077 10071 10066 10059 10053 10047 10042 10037 10031 10026 10020 10014 10008 10005 10002 9999 9996 9992 9987 9982 9977 9971 9966 9962 9958 9954 9949 9944 9940 9937 9935 9933 9932 9931 9931 9930 9929 9929 9929 9930 9933 9930 9924 9918 9914 9913 9912 9909 9907 9909 9910 9908 9908 9910 9913 9916 9919 9923 9924
10086 10079 10073 10066 10059 10053 10047 10041 10035 10029 10024 10019 10013 10007 10001 9996 9991 9988 9985 9981 9977 9972 9967 9962 9957 9952 9947 9944 9940 9936 9931 9928 9924 9921 9918 9916 9914 9912 9911 9911 9911 9910 9910 9911 9913 9912 9908 9903 9897 9894 9893 9890 9888 9891 9894 9891 9889 9891 9895 9899 9902 9905 9906
10069 10062 10055 10049 10042 10035 10029 10023 10018 10012 10006 10001 9995 9989 9983 9979 9975 9972 9968 9963 9958 9953 9948 9944 9938 9933 9928 9924 9921 9918 9914 9911 9908 9906 9903 9900 9897 9894 9893 9894 9893 9892 9891 9891 9892 9891 9889 9886 9881 9877 9875 9872 9870 9874 9877 9874 9874 9877 9879 9880 9884 9887 9888
10052 10045 10039 10032 10025 10018 10012 10006 10001 9995 9989 9983 9977 9971 9967 9963 9959 9955 9950 9946 9941 9935 9930 9925 9920 9915 9910 9906 9903 9900 9897 9895 9892 9890 9889 9885 9881 9879 9878 9877 9877 9876 9874 9873 9872 9872 9869 9867 9866 9861 9855 9853 9853 9857 9861 9858 9858 9862 9864 9864 9868 9870 9870
10035 10029 10022 10015 10008 10002 9996 9990 9984 9978 9972 9966 9960 9955 9952 9948 9943 9939 9934 9929 9924 9919 9913 9908 9902 9897 9893 9888 9885 9882 9880 9878 9877 9875 9873 9869 9867 9865 9864 9863 9861 9859 9857 9856 9856 9855 9851 9849 9849 9844 9837 9837 9838 9840 9844 9843 9841 9845 9849 9850 9852 9853 9851
10019 10012 10005 9998 9992 9985 9979 9973 9967 9961 9955 9949 9944 9940 9936 9932 9927 9923 9918 9913 9908 9903 9897 9891 9886 9881 9876 9872 9869 9866 9863 9861 9860 9859 9857 9854 9852 9851 9851 9849 9847 9844 9841 9839 9840 9838 9835 9834 9833 9826 9823 9825 9824 9822 9824 9826 9826 9829 9833 9835 9837 9835 9832
10002 9995 9989 9982 9975 9969 9963 9957 9951 9944 9938 9933 9928 9925 9921 9917 9912 9907 9903 9898 9893 9887 9881 9876 9871 9865 9860 9857 9853 9850 9847 9845 9844 9842 9841 9839 9838 9838 9837 9834 9831 9829 9826 9824 9824 9822 9820 9819 9817 9813 9811 9810 9807 9805 9807 9809 9810 9814 9817 9819 9821 9818 9813
9985 9978 9972 9965 9959 9952 9946 9940 9934 9927 9921 9917 9913 9910 9906 9901 9897 9893 9888 9883 9877 9871 9866 9861 9855 9850 9846 9842 9839 9835 9832 9830 9828 9826 9825 9825 9825 9824 9822 9818 9815 9813 9811 9809 9809 9809 9808 9804 9801 9800 9796 9792 9791 9792 9792 9793 9795 9799 9802 9803 9802 9799 9795
9968 9962 9955 9949 9942 9936 9930 9924 9917 9910 9905 9902 9898 9895 9892 9887 9882 9878 9874 9868 9863 9856 9851 9845 9840 9836 9832 9828 9824 9821 9817 9815 9813 9812 9812 9812 9811 9809 9806 9802 9799 9797 9795 9794 9795 9797 9796 9789 9785 9784 9781 9776 9777 9780 9778 9778 9780 9782 9785 9786 9784 9781 9778
9951 9945 9939 9932 9925 9919 9914 9908 9901 9895 9891 9887 9883 9879 9877 9875 9869 9863 9858 9853 9847 9842 9836 9830 9826 9823 9820 9815 9811 9807 9802 9800 9799 9799 9800 9799 9798 9794 9791 9787 9784 9779 9777 9780 9785 9788 9784 9774 9767 9768 9767 9763 9764 9766 9764 9763 9765 9766 9767 9768 9767 9764 9761
9935 9929 9922 9916 9909 9904 9899 9892 9886 9881 9876 9872 9868 9864 9862 9861 9857 9851 9844 9839 9833 9827 9821 9815 9812 9810 9807 9803 9798 9793 9789 9787 9787 9788 9788 9786 9784 9780 9776 9773 9767 9762 9762 9767 9772 9775 9772 9763 9754 9753 9753 9751 9750 9750 9748 9748 9751 9751 9751 9752 9752 9749 9745
9919 9913 9907 9901 9894 9889 9884 9878 9871 9866 9862 9858 9854 9851 9848 9846 9843 9838 9832 9826 9820 9814 9809 9803 9799 9796 9792 9788 9783 9779 9776 9775 9775 9776 9775 9773 9770 9765 9762 9757 9749 9746 9750 9754 9756 9755 9754 9751 9745 9742 9740 9738 9735 9733 9731 9735 9739 9736 9735 9738 9736 9732 9730
9904 9898 9892 9886 9881 9875 9869 9863 9856 9851 9847 9844 9840 9838 9835 9832 9828 9824 9819 9813 9807 9803 9799 9795 9790 9784 9779 9774 9768 9763 9761 9760 9760 9762 9762 9760 9756 9750 9746 9739 9732 9731 9737 9738 9738 9737 9736 9734 9733 9731 9728 9725 9721 9718 9717 9723 9724 9720 9721 9724 9719 9715 9717
9890 9884 9878 9872 9866 9861 9855 9849 9842 9836 9833 9831 9827 9825 9822 9818 9814 9810 9805 9799 9795 9791 9787 9783 9779 9773 9768 9764 9758 9752 9748 9745 9744 9746 9748 9747 9744 9738 9731 9721 9716 9719 9721 9717 9717 9719 9720 9719 9718 9716 9715 9711 9707 9705 9707 9711 9710 9704 9706 9710 9705 9701 9702
9876 9870 9864 9858 9852 9846 9841 9835 9828 9823 9819 9817 9815 9812 9809 9805 9801 9796 9791 9787 9782 9779 9775 9770 9765 9760 9756 9753 9749 9743 9737 9733 9731 9732 9733 9733 9732 9729 9720 9709 9706 9708 9705 9698 9696 9699 9702 9705 9704 9701 9700 9697 9693 9692 9695 9699 9698 9692 9690 9692 9692 9690 9689
9862 9856 9850 9844 9838 9832 9827 9822 9816 9810 9806 9804 9801 9798 9796 9793 9788 9783 9779 9774 9770 9766 9762 9756 9751 9747 9742 9739 9736 9731 9726 9722 9718 9718 9720 9720 9718 9716 9709 9703 9701 9698 9691 9685 9682 9681 9684 9688 9688 9687 9687 9684 9680 9679 9680 9683 9685 9683 9678 9676 9677 9678 9679
9847 9842 9837 9830 9824 9818 9813 9808 9803 9797 9793 9790 9787 9784 9782 9780 9776 9771 9767 9763 9758 9753 9748 9743 9739 9734 9729 9725 9722 9718 9713 9708 9705 9703 9705 9705 9704 9701 9697 9695 9694 9687 9677 9671 9670 9669 9669 9670 9672 9674 9674 9671 9669 9668 9667 9668 9669 9670 9669 9665 9663 9665 9666
9834 9829 9823 9817 9811 9805 9799 9794 9790 9785 9780 9776 9773 9771 9768 9766 9763 9758 9754 9751 9746 9740 9735 9731 9726 9722 9717 9713 9710 9704 9698 9694 9691 9689 9689 9689 9690 9689 9686 9685 9683 9676 9665 9658 9657 9657 9656 9655 9656 9659 9660 9658 9657 9656 9654 9654 9654 9657 9658 9655 9653 9652 9652
9820 9816 9810 9804 9798 9792 9787 9782 9777 9772 9767 9763 9760 9757 9754 9751 9748 9744 9741 9739 9735 9729 9723 9718 9713 9709 9705 9701 9697 9691 9685 9681 9678 9675 9673 9673 9674 9674 9674 9672 9669 9663 9657 9650 9646 9644 9643 9641 9642 9645 9646 9646 9645 9644 9642 9640 9640 9644 9646 9644 9642 9641 9639
9807 9802 9797 9792 9786 9780 9775 9769 9763 9758 9753 9750 9747 9744 9740 9737 9733 9729 9726 9725 9723 9718 9712 9706 9701 9697 9694 9689 9683 9677 9673 9670 9667 9663 9661 9660 9659 9658 9657 9656 9653 9649 9646 9643 9638 9633 9631 9629 9628 9630 9632 9633 9634 9634 9632 9629 9628 9629 9632 9632 9631 9629 9628
9794 9789 9785 9779 9774 9768 9763 9757 9751 9745 9740 9736 9733 9730 9726 9722 9719 9715 9712 9711 9710 9706 9702 9697 9691 9685 9680 9675 9670 9664 9660 9658 9655 9652 9649 9647 9646 9644 9643 9640 9637 9635 9634 9632 9628 9623 9620 9617 9616 9616 9617 9618 9620 9622 9622 9621 9618 9617 9618 9619 9620 9618 9616
9782 9777 9772 9767 9762 9756 9750 9745 9739 9734 9729 9725 9720 9716 9711 9708 9706 9703 9699 9696 9694 9691 9690 9687 9682 9674 9667 9661 9656 9652 9649 9646 9643 9639 9636 9634 9633 9633 9632 9627 9622 9621 9621 9619 9617 9614 9610 9606 9604 9603 9603 9603 9606 9609 9611 9610 9609 9607 9605 9606 9607 9607 9606
9769 9765 9760 9756 9751 9744 9738 9732 9726 9721 9717 9713 9707 9701 9696 9694 9691 9689 9687 9683 9679 9676 9675 9673 9669 9662 9656 9650 9645 9642 9639 9636 9632 9629 9625 9622 9620 9619 9619 9616 9611 9609 9608 9607 9605 9605 9602 9598 9595 9592 9591 9590 9591 9594 9598 9599 9598 9595 9594 9594 9595 9595 9594
9757 9752 9748 9744 9739 9733 9727 9721 9715 9709 9706 9701 9695 9688 9683 9680 9677 9674 9671 9669 9666 9663 9661 9658 9653 9648 9642 9638 9634 9631 9627 9624 9621 9619 9615 9612 9609 9607 9606 9604 9600 9597 9596 9595 9594 9593 9591 9589 9587 9584 9582 9581 9579 9580 9584 9587 9586 9584 9582 9583 9584 9583 9582
9745 9740 9735 9731 9726 9720 9715 9710 9703 9698 9694 9689 9683 9677 9672 9668 9663 9659 9657 9654 9651 9649 9648 9644 9638 9633 9629 9625 9622 9619 9616 9612 9610 9608 9605 9601 9599 9596 9594 9592 9590 9587 9585 9584 9583 9582 9579 9578 9577 9575 9572 9571 9570 9569 9571 9575 9575 9573 9572 9572 9573 9572 9571
9733 9728 9724 9719 9713 9708 9703 9698 9692 9686 9681 9676 9671 9666 9661 9656 9651 9646 9642 9638 9635 9634 9634 9631 9626 9621 9615 9612 9610 9607 9604 9601 9599 9597 9594 9590 9588 9586 9583 9580 9578 9577 9576 9574 9571 9569 9568 9567 9566 9564 9562 9561 9560 9559 9560 9562 9564 9564 9562 9561 9561 9561 9560
9720 9717 9712 9708 9703 9696 9691 9685 9679 9674 9668 9663 9659 9655 9650 9646 9641 9636 9631 9626 9621 9619 9617 9614 9612 9609 9604 9599 9597 9594 9591 9589 9587 9585 9583 9580 9578 9575 9572 9569 9566 9565 9565 9564 9561 9558 9557 9555 9554 9552 9551 9551 9550 9550 9549 9550 9552 9553 9553 9552 9551 9550 9549
9706 9703 9699 9696 9692 9687 9681 9675 9669 9662 9655 9649 9645 9641 9637 9634 9630 9625 9621 9618 9616 9613 9607 9601 9597 9595 9591 9587 9585 9582 9579 9576 9574 9573 9571 9570 9567 9564 9562 9559 9556 9554 9553 9552 9550 9549 9547 9545 9542 9541 9540 9540 9539 9540 9539 9539 9539 9541 9543 9543 9542 9541 9540
9695 9691 9686 9681 9677 9674 9670 9665 9659 9653 9646 9639 9634 9629 9624 9620 9615 9609 9605 9604 9604 9603 9599 9594 9589 9584 9580 9575 9572 9570 9568 9565 9563 9561 9559 9558 9556 9553 9551 9548 9545 9543 9542 9540 9540 9539 9537 9535 9533 9531 9530 9529 9529 9529 9530 9529 9529 9530 9532 9534 9534 9533 9532
9682 9679 9675 9670 9665 9661 9657 9652 9647 9641 9636 9631 9625 9620 9616 9611 9605 9598 9592 9589 9588 9587 9585 9582 9579 9575 9571 9567 9562 9558 9555 9553 9552 9550 9548 9546 9545 9543 9540 9537 9534 9532 9530 9528 9528 9527 9526 9524 9523 9520 9519 9518 9518 9519 9519 9519 9520 9521 9521 9523 9523 9523 9523
9666 9663 9660 9657 9653 9648 9643 9638 9634 9629 9623 9619 9615 9610 9606 9601 9595 9589 9583 9579 9577 9574 9572 9568 9565 9563 9560 9557 9554 9549 9545 9541 9539 9537 9535 9534 9533 9532 9531 9528 9524 9521 9519 9517 9516 9515 9514 9513 9512 9510 9508 9508 9507 9507 9507 9508 9510 9511 9511 9512 9513 9513 9513
9656 9650 9645 9642 9639 9635 9630 9624 9619 9615 9611 9607 9603 9599 9595 9590 9585 9579 9573 9568 9565 9563 9560 9557 9553 9549 9547 9545 9543 9540 9536 9532 9529 9526 9524 9521 9520 9519 9520 9519 9517 9514 9511 9507 9505 9504 9503 9502 9501 9499 9498 9497 9496 9496 9496 9496 9498 9500 9501 9502 9502 9502 9502